FW7196 Weather Reports


Display with metric or nautical units.
time (UTC)temp
F
wind
direction
speed
MPH
gust
MPH
rain 1hr
in
rain 24hr
in
rain mn
in
humidity
%
barometer
mb
20260902191542 67 0 1.0 7.0 0.00 0.01 0.01 83 1020.9
20260902190329 67 51 0.0 0.0 0.00 0.01 0.01 82 1020.9
20260902190043 66 359 0.0 7.0 0.00 0.01 0.01 82 1021.0
20260902185151 65 194 0.0 2.0 0.00 0.01 0.01 86 1021.1
20260902184648 65 191 0.0 0.0 0.00 0.01 0.01 86 1021.3
20260902184606 64 0 0.0 2.0 0.00 0.01 0.01 86 1021.4
20260902184133 65 180 0.0 0.0 0.00 0.01 0.01 86 1021.6
20260902183618 65 124 0.0 0.0 0.00 0.01 0.01 85 1021.6
20260902183103 65 124 0.0 3.0 0.00 0.01 0.01 85 1021.8
20260902183047 65 0 1.0 4.0 0.00 0.01 0.01 85 1021.8
20260902182610 65 159 0.0 0.0 0.00 0.01 0.01 85 1021.8
20260902182118 65 159 0.0 0.0 0.00 0.01 0.01 84 1021.7
20260902181605 65 161 0.0 0.0 0.00 0.01 0.01 83 1021.5
20260902181545 65 0 0.0 4.0 0.00 0.01 0.01 83 1021.6
20260902181052 66 26 0.0 1.0 0.00 0.01 0.01 84 1021.5
20260902180544 66 188 0.0 0.0 0.00 0.01 0.01 84 1021.4
20260902180044 65 0 0.0 3.0 0.00 0.01 0.01 83 1021.3
20260902180038 66 292 0.0 1.0 0.00 0.01 0.01 83 1021.3
20260902174541 65 50 0.0 3.0 0.00 0.01 0.01 83 1021.4
20260902173044 65 17 0.0 2.0 0.00 0.01 0.01 83 1021.3
20260902171552 65 0 0.0 1.0 0.00 0.01 0.01 84 1021.5
20260902170041 65 0 0.0 4.0 0.00 0.01 0.01 83 1021.8
20260902164543 66 0 0.0 3.0 0.00 0.01 0.01 82 1021.8
20260902163049 66 0 0.0 5.0 0.00 0.01 0.01 81 1021.8
20260902161542 66 0 0.0 5.0 0.00 0.01 0.01 82 1021.6
20260902160544 66 39 0.0 1.0 0.00 0.01 0.01 82 1021.8
20260902160046 65 0 0.0 4.0 0.00 0.01 0.01 82 1021.9
20260902160029 66 6 0.0 3.0 0.00 0.01 0.01 82 1021.9
20260902155534 66 173 0.0 0.0 0.00 0.01 0.01 84 1021.9
20260902154545 65 0 0.0 2.0 0.00 0.01 0.01 84 1022.2
20260902153051 65 0 0.0 2.0 0.00 0.01 0.01 83 1022.6
20260902151542 65 0 0.0 4.0 0.00 0.01 0.01 83 1022.3
20260902150043 65 0 0.0 2.0 0.00 0.01 0.01 85 1022.6
20260902145009 65 15 0.0 0.0 0.00 0.01 0.01 83 1022.6
20260902144542 64 0 1.0 3.0 0.00 0.01 0.01 85 1022.5
20260902144513 65 316 0.0 2.0 0.00 0.01 0.01 84 1022.5
20260902144012 65 340 0.0 0.0 0.00 0.01 0.01 84 1022.3
20260902143509 64 343 0.0 0.0 0.00 0.01 0.01 85 1022.5
20260902143041 64 0 0.0 4.0 0.00 0.01 0.01 86 1022.5
20260902143015 64 152 0.0 0.0 0.00 0.01 0.01 86 1022.5
20260902142500 64 262 0.0 3.0 0.00 0.01 0.01 86 1022.3
20260902141956 64 272 0.0 1.0 0.00 0.01 0.01 87 1022.3
20260902141539 63 0 0.0 3.0 0.00 0.01 0.01 87 1022.3
20260902141445 63 125 0.0 2.0 0.00 0.01 0.01 87 1022.3
20260902140935 63 279 0.0 0.0 0.00 0.01 0.01 88 1022.2
20260902140416 63 199 0.0 1.0 0.00 0.01 0.01 88 1022.3
20260902140041 62 317 0.0 2.0 0.00 0.01 0.01 89 1022.3
20260902135858 62 334 0.0 0.0 0.00 0.01 0.01 90 1022.2
20260902135349 62 304 0.0 0.0 0.00 0.01 0.01 90 1022.1
20260902134848 62 38 0.0 0.0 0.00 0.01 0.01 90 1022.2
20260902134550 62 0 0.0 3.0 0.00 0.03 0.01 91 1022.1
20260902134346 62 238 0.0 2.0 0.00 0.01 0.01 90 1022.1
20260902133229 62 254 0.0 1.0 0.00 0.01 0.01 92 1021.8
20260902133047 61 0 0.0 3.0 0.00 0.03 0.01 92 1021.8
20260902132722 62 195 0.0 2.0 0.00 0.01 0.01 92 1021.8
20260902132223 62 156 0.0 1.0 0.00 0.01 0.01 94 1021.8
20260902131545 61 0 0.0 1.0 0.00 0.03 0.01 95 1021.7
20260902131053 61 209 0.0 0.0 0.00 0.01 0.01 95 1021.6
20260902130043 60 0 0.0 2.0 0.00 0.03 0.01 95 1021.7
20260902125926 61 228 0.0 0.0 0.00 0.03 0.01 96 1021.7
20260902125408 61 228 0.0 1.0 0.00 0.03 0.01 96 1021.6
20260902124544 60 0 0.0 2.0 0.00 0.16 0.01 96 1021.7
20260902124235 60 184 0.0 0.0 0.00 0.03 0.01 96 1021.7
20260902123738 60 196 0.0 0.0 0.00 0.18 0.01 96 1021.8
20260902123243 60 196 0.0 0.0 0.00 0.18 0.01 96 1021.8
20260902123051 60 196 0.0 3.0 0.00 0.16 0.01 96 1021.9
20260902121544 59 0 0.0 1.0 0.00 0.16 0.01 97 1022.0
20260902121502 60 261 0.0 0.0 0.00 0.18 0.01 97 1021.9
20260902120043 59 0 0.0 2.0 0.00 0.16 0.01 97 1021.9
20260902114546 59 0 0.0 5.0 0.00 0.27 0.01 97 1021.9
20260902113041 59 0 0.0 1.0 0.00 0.27 0.01 97 1022.0
20260902111540 58 0 0.0 0.0 0.00 0.27 0.01 97 1022.1
20260902110046 58 0 0.0 1.0 0.00 0.27 0.01 97 1022.1
20260902104542 58 0 0.0 0.0 0.00 0.31 0.01 97 1021.8
20260902103040 58 0 0.0 0.0 0.00 0.31 0.01 97 1021.8
20260902101547 58 0 0.0 0.0 0.00 0.31 0.01 97 1021.5
20260902100041 58 0 0.0 0.0 0.00 0.31 0.01 97 1021.4
20260902094542 59 0 0.0 1.0 0.00 0.31 0.01 97 1021.5
20260902093040 59 0 0.0 0.0 0.00 0.31 0.01 97 1021.5
20260902091544 59 0 0.0 0.0 0.00 0.31 0.01 97 1021.4
20260902090048 59 30 0.0 0.0 0.00 0.30 0.01 96 1021.1
20260902090042 59 0 0.0 0.0 0.00 0.31 0.01 96 1021.1
20260902084545 59 0 0.0 0.0 0.00 0.31 0.01 97 1021.3
20260902083041 59 0 0.0 1.0 0.00 0.31 0.01 97 1021.1
20260902081546 59 0 0.0 0.0 0.00 0.31 0.01 96 1021.3
20260902080043 60 0 0.0 0.0 0.00 0.31 0.01 96 1021.0
20260902074549 60 0 0.0 0.0 0.00 0.31 0.01 97 1021.2
20260902073040 60 0 0.0 0.0 0.00 0.31 0.01 96 1021.4
20260902071543 60 0 0.0 0.0 0.00 0.31 0.01 97 1021.2
20260902070047 60 0 0.0 0.0 0.00 0.31 0.01 97 1021.3
20260902064545 60 0 0.0 0.0 0.00 0.31 0.01 97 1021.3
20260902063043 60 0 0.0 0.0 0.01 0.31 0.01 97 1021.1
20260902061557 60 0 0.0 0.0 0.01 0.31 0.01 97 1021.0
20260902060055 60 0 0.0 0.0 0.01 0.31 0.01 97 1020.9
20260902054608 60 0 0.0 0.0 0.01 0.31 0.01 97 1020.8
20260902053100 60 0 0.0 0.0 0.00 0.30 0.00 96 1020.5
20260902051542 61 0 0.0 0.0 0.00 0.30 0.00 96 1020.4
20260902050042 61 0 0.0 0.0 0.00 0.30 0.00 96 1020.4
20260902044552 61 0 0.0 0.0 0.00 0.30 0.00 96 1020.2
20260902043046 61 0 0.0 0.0 0.00 0.30 0.00 96 1020.1
20260902041541 61 0 0.0 0.0 0.00 0.30 0.00 96 1020.0
20260902040048 61 0 0.0 0.0 0.00 0.30 0.00 96 1019.7
20260902034545 61 0 0.0 0.0 0.00 0.30 0.30 96 1019.7
20260902033044 61 0 0.0 0.0 0.00 0.30 0.30 96 1019.7
20260902031547 61 0 0.0 0.0 0.00 0.30 0.30 96 1019.6
20260902030042 61 0 0.0 2.0 0.00 0.30 0.30 96 1019.7
20260902024541 61 0 0.0 2.0 0.00 0.30 0.30 96 1019.6
20260902023047 61 0 0.0 1.0 0.00 0.30 0.30 96 1019.3
20260902023022 62 30 0.0 0.0 0.00 0.29 0.30 96 1019.2
20260902021542 61 0 0.0 0.0 0.00 0.30 0.30 96 1019.3
20260902020042 62 0 0.0 1.0 0.00 0.30 0.30 96 1019.4
20260902014540 62 0 0.0 0.0 0.00 0.30 0.30 96 1019.3
20260902013043 62 0 0.0 0.0 0.00 0.30 0.30 96 1019.3
20260902011545 62 0 0.0 0.0 0.00 0.30 0.30 96 1019.3
20260902010045 62 0 0.0 0.0 0.00 0.30 0.30 96 1019.5
20260902004543 62 0 0.0 0.0 0.00 0.30 0.30 96 1019.5
20260902003043 62 0 0.0 0.0 0.00 0.30 0.30 95 1019.2
20260902001556 62 0 0.0 0.0 0.00 0.30 0.30 95 1019.0
20260902000045 62 0 0.0 0.0 0.00 0.30 0.30 95 1018.7
20260901234541 62 0 0.0 0.0 0.00 0.30 0.30 95 1018.6
20260901233039 62 0 0.0 1.0 0.00 0.30 0.30 95 1018.5
20260901231548 63 0 0.0 0.0 0.00 0.30 0.30 94 1018.4
20260901230043 63 0 0.0 0.0 0.00 0.30 0.30 94 1018.5
20260901224545 63 0 0.0 0.0 0.00 0.30 0.30 94 1018.4
20260901223050 64 0 0.0 0.0 0.00 0.30 0.30 94 1018.6
20260901221556 64 0 0.0 0.0 0.00 0.30 0.30 93 1018.7
20260901220052 64 0 0.0 0.0 0.00 0.30 0.30 93 1018.5
20260901214551 64 0 0.0 1.0 0.00 0.30 0.30 93 1018.3
20260901213048 64 0 0.0 0.0 0.00 0.30 0.30 93 1018.2
20260901211544 65 0 0.0 0.0 0.00 0.30 0.30 93 1018.1
20260901210044 65 170 0.0 3.0 0.00 0.30 0.30 92 1018.2
20260901204549 65 0 0.0 1.0 0.00 0.30 0.30 92 1018.1
20260901203047 65 140 0.0 2.0 0.00 0.30 0.30 93 1017.8
20260901201543 65 0 0.0 0.0 0.00 0.30 0.30 94 1017.9
20260901200042 64 0 0.0 1.0 0.00 0.30 0.30 92 1018.0
20260901194545 65 0 0.0 0.0 0.00 0.30 0.30 93 1017.9
20260901193048 65 0 0.0 1.0 0.00 0.30 0.30 93 1017.8